This is the latest recevied weather packets stored in our database for station/object K7CTM. If no packets are shown the sender has not sent any weather packets the latest 10 day(s).
| Time | Temp. | Humidity | Pressure | Rain* | Wind** | Luminosity | Snow |
|---|---|---|---|---|---|---|---|
| 1787819961 | 16.67° C | 68% | 1030.7 hPa | 0 mm | - | 0 W/m² | - |
| 1787819657 | 16.67° C | 65% | 1030.6 hPa | 0 mm | - | 0 W/m² | - |
| 1787819356 | 17.22° C | 62% | 1030.5 hPa | 0 mm | - | 0 W/m² | - |
| 1787819051 | 18.33° C | 59% | 1030.5 hPa | 0 mm | - | 0 W/m² | - |
| 1787818749 | 18.89° C | 55% | 1030.5 hPa | 0 mm | - | 0 W/m² | - |
| 1787818446 | 17.78° C | 57% | 1030.5 hPa | 0 mm | - | 0 W/m² | - |
| 1787818141 | 17.78° C | 59% | 1030.7 hPa | 0 mm | - | 0 W/m² | - |
| 1787817840 | 17.22° C | 61% | 1030.7 hPa | 0 mm | - | 0 W/m² | - |
| 1787817537 | 17.22° C | 63% | 1030.8 hPa | 0 mm | - | 0 W/m² | - |
| 1787817232 | 17.78° C | 61% | 1030.8 hPa | 0 mm | - | 0 W/m² | - |
| 1787816931 | 18.33° C | 57% | 1030.8 hPa | 0 mm | - | 0 W/m² | - |
| 1787816627 | 18.33° C | 57% | 1031.1 hPa | 0 mm | - | 0 W/m² | - |
| 1787816323 | 17.78° C | 61% | 1030.8 hPa | 0 mm | - | 0 W/m² | - |
| 1787816023 | 17.78° C | 62% | 1030.6 hPa | 0 mm | - | 0 W/m² | - |
| 1787815718 | 17.78° C | 62% | 1030.5 hPa | 0 mm | - | 0 W/m² | - |
| 1787815415 | 17.78° C | 64% | 1030.5 hPa | 0 mm | - | 0 W/m² | - |
| 1787815111 | 17.78° C | 62% | 1030.6 hPa | 0 mm | - | 0 W/m² | - |
| 1787814805 | 17.22° C | 61% | 1030.6 hPa | 0 mm | - | 0 W/m² | - |
| 1787814505 | 17.78° C | 60% | 1030.5 hPa | 0 mm | - | 0 W/m² | - |
| 1787814199 | 18.33° C | 54% | 1030.6 hPa | 0 mm | - | 0 W/m² | - |
| 1787813894 | 18.89° C | 53% | 1030.8 hPa | 0 mm | - | 0 W/m² | - |
| 1787813590 | 18.89° C | 53% | 1030.8 hPa | 0 mm | - | 0 W/m² | - |
| 1787813290 | 18.89° C | 53% | 1030.8 hPa | 0 mm | - | 0 W/m² | - |
| 1787812983 | 18.89° C | 52% | 1030.6 hPa | 0 mm | - | 0 W/m² | - |
| 1787812682 | 18.89° C | 56% | 1030.8 hPa | 0 mm | - | 0 W/m² | - |
* Rain latest hour (hover to see other rain measurements)
** Current wind speed in m/s (hover to see current wind gust speed)